cover

 

Get it on iTunes StoreListen on Apple Music

Space Motion

#Trackname / Key / BPM / Publish dateArtists, Remixers / Label
1 125 bpm, 6B / Bb major, 2019-03-01, Progressive House,  3  25
2 124 bpm, 9B / G major, 2019-02-28, Progressive House,  0  15
3 125 bpm, 7B / F major, 2019-02-08, Progressive House,  0  25
4 122 bpm, 6A / G minor, 2019-02-04, Melodic House & Techno,  15  1
4
5 124 bpm, 7B / F major, 2019-01-28, Progressive House,  3  3
1
6 122 bpm, 8B / C major, 2019-01-28, Progressive House,  6  3
2
7 123 bpm, 8B / C major, 2019-01-28, Progressive House,  0  3
1
8 124 bpm, 7A / D minor, 2019-01-21, Afro House,  1  3
9 124 bpm, 9B / G major, 2019-01-17, Progressive House,  0  17
10 124 bpm, 7A / D minor, 2019-01-07, Melodic House & Techno,  18  1
1
11 124 bpm, 9B / G major, 2018-12-21, Afro House,  0  1
12 123 bpm, 5B / Eb major, 2018-12-17, Progressive House,  0  32
13 122 bpm, 12B / E major, 2018-12-17, Progressive House,  0  32
14 119 bpm, 7A / D minor, 2018-12-17, Progressive House,  7  2
1
15 124 bpm, 7A / D minor, 2018-12-17, Afro House,  1  2
16 123 bpm, 12B / E major, 2018-12-17, Progressive House,  0  60
17 120 bpm, 3B / Db major, 2018-12-17, Progressive House,  3  4
18 125 bpm, 12B / E major, 2018-12-17, Melodic House & Techno,  1  4
19 124 bpm, 12B / E major, 2018-12-17, Melodic House & Techno,  0  4
20 126 bpm, 8B / C major, 2018-12-17, Melodic House & Techno,  0  4
21 124 bpm, 11B / A major, 2018-11-12, Afro House,  1  10
22 125 bpm, 6B / Bb major, 2018-10-29, Progressive House,  31  2
1
23 125 bpm, 7B / F major, 2018-10-29, Progressive House,  7  2
1
24 123 bpm, 6B / Bb major, 2018-10-26, Progressive House,  1  25
25 122 bpm, 5B / Eb major, 2018-10-15, Progressive House,  7  3
26 124 bpm, 4B / Ab major, 2018-10-13, Melodic House & Techno,  0  20
27 124 bpm, 8A / A minor, 2018-10-13, Tech House,  0  20
28 123 bpm, 12B / E major, 2018-10-01, Progressive House,  3  3
29 126 bpm, 12B / E major, 2018-10-01, Progressive House,  0  3
30 124 bpm, 5B / Eb major, 2018-10-01, Techno,  0  3
31 123 bpm, 9B / G major, 2018-09-17, Melodic House & Techno,  1  3
32 122 bpm, 5B / Eb major, 2018-07-23, Progressive House,  7  3
1
33 123 bpm, 5B / Eb major, 2018-07-23, Progressive House,  9  3
34 122 bpm, 7B / F major, 2018-07-23, Progressive House,  4  3
35 123 bpm, 6B / Bb major, 2018-07-02, Progressive House,  1  1
36 124 bpm, 6A / G minor, 2018-06-28, Afro House,  0  3
37 124 bpm, 8B / C major, 2018-06-28, Progressive House,  0  3
38 122 bpm, 10B / D major, 2018-06-16, Progressive House,  1  1
39 124 bpm, 9B / G major, 2018-04-20, Deep House,  0  1
40 122 bpm, 5B / Eb major, 2018-04-02, Progressive House,  19  2
41 122 bpm, 12B / E major, 2018-03-16, Progressive House,  1  21
42 128 bpm, 2B / F# major, 2018-03-02, Dance,  0  13
43 122 bpm, 12B / E major, 2018-01-29, Progressive House,  6  1
44 128 bpm, 2B / F# major, 2018-01-26, Dance,  0  10
45 124 bpm, 11B / A major, 2018-01-22, Afro House,  13  3
46 124 bpm, 7B / F major, 2018-01-22, Progressive House,  5  3
47 122 bpm, 10B / D major, 2018-01-22, Progressive House,  4  3
48 123 bpm, 8A / A minor, 2018-01-08, Progressive House,  0  20
49 126 bpm, 12B / E major, 2017-12-29, Progressive House,  0  100
50 124 bpm, 9B / G major, 2017-12-25, Progressive House,  2  20
51 122 bpm, 4B / Ab major, 2017-11-20, Progressive House,  3  10
52 122 bpm, 4B / Ab major, 2017-11-10, Progressive House,  0  14
53 125 bpm, 12B / E major, 2017-09-28, Progressive House,  0  15
54 124 bpm, 11A / F# minor, 2017-09-22, Progressive House,  0  16
55 124 bpm, 2B / F# major, 2017-09-22, Progressive House,  2  16
56 124 bpm, 4B / Ab major, 2017-08-14, Progressive House,  0  1
57 123 bpm, 12B / E major, 2017-07-17, Progressive House,  0  3
58 123 bpm, 8A / A minor, 2017-07-17, Progressive House,  1  3
59 123 bpm, 9A / E minor, 2017-07-17, Progressive House,  1  3
60 122 bpm, 4B / Ab major, 2017-07-13, Progressive House,  0  14
61 126 bpm, 12B / E major, 2017-06-16, Progressive House,  0  53
62 121 bpm, 9B / G major, 2017-06-12, Techno,  0  10
63 130 bpm, 7A / D minor, 2017-04-17, Trance,  0  5
64 130 bpm, 7A / D minor, 2017-04-17, Trance,  0  5
65 126 bpm, 12B / E major, 2017-04-07, Progressive House,  1  11
66 121 bpm, 9B / G major, 2017-02-21, Techno,  6  3
67 127 bpm, 6A / G minor, 2017-02-21, Techno,  1  3
68 124 bpm, 8A / A minor, 2017-02-21, Tech House,  0  3
69 122 bpm, 4B / Ab major, 2017-02-06, Progressive House,  8  2
70 125 bpm, 12B / E major, 2017-02-06, Progressive House,  2  2
71 130 bpm, 10A / B minor, 2017-01-23, Trance,  0  9
72 130 bpm, 7A / D minor, 2017-01-23, Trance,  0  9
73 136 bpm, 10A / B minor, 2017-01-23, Trance,  0  9
74 128 bpm, 10A / B minor, 2017-01-23, Trance,  0  9
75 128 bpm, 10A / B minor, 2017-01-23, Trance,  0  9
76 128 bpm, 10A / B minor, 2017-01-23, Trance,  0  9
77 130 bpm, 10A / B minor, 2017-01-23, Trance,  0  9
78 130 bpm, 7A / D minor, 2017-01-23, Trance,  0  9
79 132 bpm, 10B / D major, 2017-01-23, Trance,  0  9
80 123 bpm, 11B / A major, 2017-01-09, Techno,  0  3
81 126 bpm, 6B / Bb major, 2016-12-19, Progressive House,  0  10
82 124 bpm, 12B / E major, 2016-09-16, Progressive House,  2  2
83 123 bpm, 1A / Ab minor, 2016-09-16, Progressive House,  2  2
84 126 bpm, 6B / Bb major, 2016-08-22, Progressive House,  4  2
85 124 bpm, 1A / Ab minor, 2016-08-22, Progressive House,  0  2
86 124 bpm, 8A / A minor, 2016-05-20, Techno,  0  1
87 124 bpm, 6B / Bb major, 2015-04-13, Deep House,  0  1
88 128 bpm, 2B / F# major, 2014-12-05, House,  0  13
89 128 bpm, 2B / F# major, 2014-08-29, House,  0  1
90 130 bpm, 7A / D minor, 2014-08-22, Trance,  0  30
91 127 bpm, 2A / Eb minor, 2011-11-08, Progressive House,  0  10
92 135 bpm, 3A / Bb minor, 2011-07-01, Techno,  0  5
93 127 bpm, 1A / Ab minor, 2011-06-16, House,  0  2
94 127 bpm, 1A / Ab minor, 2011-06-16, House,  0  2
95 128 bpm, 9A / E minor, 2010-07-26, Tech House,  1  5
96 128 bpm, 11B / A major, 2010-07-26, Progressive House,  0  5
97 128 bpm, 9B / G major, 2010-07-26, Electro House,  0  5
98 128 bpm, 9B / G major, 2010-07-26, Progressive House,  0  5
99 137 bpm, 9A / E minor, 2010-07-26, Trance,  0  5
100 136 bpm, 10A / B minor, 2010-06-29, Trance,  0  20
×

Sign in

Sign in to access your personalized pages, follow artists and labels you love, and create playlists fromyour favorite tracks.

Please wait...